EW7937 Weather Reports


Display with metric or nautical units.
time (UTC)temp
F
wind
direction
speed
MPH
gust
MPH
rain 1hr
in
rain 24hr
in
rain mn
in
humidity
%
barometer
mb
20240303190122 58 299 0.0 0.0 0.00 0.37 0.06 57 1018.6
20240303185625 57 299 0.0 0.0 0.00 0.37 0.06 58 1018.6
20240303185124 56 299 0.0 0.0 0.00 0.37 0.06 60 1018.6
20240303184624 56 299 0.0 0.0 0.00 0.47 0.06 60 1018.7
20240303184121 55 299 0.0 0.0 0.00 0.47 0.06 59 1018.7
20240303183621 56 300 0.0 0.0 0.00 0.47 0.06 60 1018.7
20240303183123 55 302 0.0 0.0 0.00 0.47 0.06 61 1018.7
20240303182622 55 300 0.0 0.0 0.00 0.47 0.06 59 1018.8
20240303182122 55 300 0.0 0.0 0.00 0.47 0.06 60 1018.7
20240303181900 56 302 0.0 0.0 0.00 0.47 0.06 65 1018.7
20240303181120 55 0 0.0 0.0 0.00 0.47 0.06 63 1018.8
20240303180622 55 155 0.0 3.0 0.00 0.47 0.06 59 1018.8
20240303180122 56 307 1.0 3.0 0.00 0.47 0.06 62 1018.8
20240303175621 55 278 0.0 0.0 0.00 0.47 0.06 60 1018.8
20240303175120 56 13 0.0 0.0 0.00 0.47 0.06 67 1018.8
20240303174622 56 13 0.0 0.0 0.00 0.47 0.06 68 1018.7
20240303174425 54 13 0.0 0.0 0.00 0.47 0.06 70 1018.6
20240303174132 55 13 0.0 0.0 0.00 0.47 0.06 71 1018.7
20240303173121 54 13 0.0 0.0 0.00 0.47 0.06 71 1018.6
20240303172624 54 13 0.0 0.0 0.00 0.47 0.06 72 1018.6
20240303172402 53 13 0.0 0.0 0.00 0.47 0.06 73 1018.6
20240303171622 53 13 0.0 0.0 0.00 0.47 0.06 77 1018.6
20240303171120 53 13 0.0 1.0 0.00 0.47 0.06 79 1018.6
20240303170620 52 13 0.0 1.0 0.00 0.47 0.06 84 1018.6
20240303170122 51 13 0.0 1.0 0.00 0.47 0.06 83 1018.6
20240303165620 51 13 0.0 1.0 0.00 0.47 0.06 84 1018.6
20240303165408 50 13 0.0 2.0 0.00 0.47 0.06 86 1018.6
20240303164619 50 13 0.0 3.0 0.00 0.47 0.06 87 1018.6
20240303164121 50 13 0.0 3.0 0.00 0.47 0.06 89 1018.6
20240303163620 49 13 0.0 0.0 0.00 0.47 0.06 90 1018.6
20240303163120 49 13 0.0 0.0 0.00 0.47 0.06 91 1018.6
20240303162909 49 13 0.0 0.0 0.00 0.47 0.06 91 1018.5
20240303162410 49 13 0.0 0.0 0.00 0.47 0.06 91 1018.4
20240303161854 49 11 0.0 0.0 0.00 0.47 0.06 92 1018.4
20240303161119 48 30 0.0 0.0 0.00 0.47 0.06 92 1018.3
20240303160617 48 30 0.0 0.0 0.00 0.48 0.06 92 1018.2
20240303160119 48 14 0.0 0.0 0.00 0.48 0.06 93 1018.1
20240303155701 47 14 0.0 0.0 0.00 0.48 0.06 94 1017.9
20240303155640 47 14 0.0 0.0 0.00 0.48 0.06 93 1018.0
20240303154908 47 0 0.0 0.0 0.00 0.48 0.06 94 1017.9
20240303154121 47 316 0.0 0.0 0.00 0.48 0.06 94 1017.9
20240303153705 46 336 0.0 0.0 0.00 0.48 0.06 94 1017.7
20240303153651 47 337 0.0 0.0 0.00 0.48 0.06 94 1017.9
20240303152619 46 326 0.0 2.0 0.00 0.48 0.06 94 1017.5
20240303152402 46 326 0.0 2.0 0.00 0.48 0.06 94 1017.5
20240303151618 46 110 0.0 0.0 0.00 0.48 0.06 94 1017.5
20240303151120 46 110 0.0 2.0 0.00 0.48 0.06 95 1017.4
20240303150617 46 110 1.0 2.0 0.00 0.48 0.06 95 1017.4
20240303150117 46 110 0.0 0.0 0.00 0.48 0.06 95 1017.3
20240303145617 46 110 0.0 0.0 0.00 0.48 0.06 95 1017.4
20240303145402 46 107 0.0 1.0 0.00 0.48 0.06 95 1017.4
20240303144617 46 107 0.0 1.0 0.00 0.48 0.06 94 1017.3
20240303144117 46 7 0.0 2.0 0.00 0.48 0.06 94 1017.3
20240303143615 46 7 0.0 2.0 0.00 0.48 0.06 94 1017.2
20240303143204 46 316 0.0 0.0 0.01 0.48 0.06 94 1017.2
20240303143144 46 353 0.0 2.0 0.01 0.48 0.06 94 1017.1
20240303142117 46 316 0.0 0.0 0.01 0.48 0.06 94 1017.2
20240303141616 46 316 0.0 0.0 0.01 0.48 0.06 94 1017.2
20240303141117 46 316 0.0 0.0 0.01 0.48 0.06 94 1017.1
20240303140616 46 316 0.0 1.0 0.01 0.48 0.06 94 1017.0
20240303140117 46 316 0.0 1.0 0.01 0.48 0.06 94 1016.8
20240303135618 46 316 0.0 0.0 0.01 0.48 0.06 94 1016.7
20240303135116 46 316 0.0 0.0 0.01 0.48 0.06 94 1016.8
20240303134844 46 316 0.0 0.0 0.01 0.48 0.06 94 1016.9
20240303134618 46 316 0.0 0.0 0.01 0.48 0.06 94 1016.9
20240303134116 46 316 0.0 0.0 0.01 0.48 0.06 94 1016.9
20240303133616 46 316 0.0 0.0 0.01 0.48 0.06 94 1016.7
20240303133117 46 316 0.0 0.0 0.00 0.47 0.05 94 1016.7
20240303132616 46 316 0.0 0.0 0.00 0.47 0.05 94 1016.7
20240303132113 45 316 0.0 0.0 0.00 0.47 0.05 94 1016.6
20240303131616 45 316 0.0 0.0 0.00 0.47 0.05 94 1016.4
20240303131115 45 316 0.0 0.0 0.00 0.47 0.05 94 1016.4
20240303130613 45 316 0.0 0.0 0.00 0.47 0.05 94 1016.3
20240303130113 45 316 0.0 0.0 0.00 0.47 0.05 94 1016.1
20240303125618 45 316 0.0 0.0 0.00 0.47 0.05 94 1016.1
20240303125116 45 316 0.0 0.0 0.00 0.47 0.05 94 1015.9
20240303124857 0 316 0.0 0.0 0.00 0.47 0.05 1015.9
20240303124113 0 0.0 0.0 0.00 0.47 0.05 1015.8
20240303123609 0 0.0 0.0 0.00 0.47 0.05 1015.8
20240303123108 0 0.0 0.0 0.00 0.47 0.05 1015.8
20240303122607 0 0.0 0.0 0.00 0.47 0.05 1015.7
20240303122107 0 0.0 0.0 0.00 0.47 0.05 1015.7
20240303121824 0 0.0 0.0 0.00 0.47 0.05 1015.7
20240303121324 0 0.0 0.0 0.00 0.47 0.05 1015.7
20240303120604 0 0.0 0.0 0.00 0.47 0.05 1015.7
20240303120105 0 0.0 0.0 0.00 0.47 0.05 1015.9
20240303115605 0 0.0 0.0 0.00 0.47 0.05 1015.9
20240303115104 0 0.0 0.0 0.00 0.47 0.05 1015.7
20240303114607 0 0.0 0.0 0.00 0.47 0.05 1015.5
20240303114105 0 0.0 0.0 0.00 0.47 0.05 1015.4
20240303113604 45 66 0.0 0.0 0.00 0.47 0.05 93 1015.3
20240303113328 45 66 0.0 0.0 0.00 0.47 0.05 93 1015.2
20240303112603 45 66 0.0 0.0 0.00 0.47 0.05 93 1015.2
20240303112105 45 66 0.0 1.0 0.00 0.47 0.05 93 1015.2
20240303111606 45 66 0.0 1.0 0.00 0.48 0.05 93 1015.1
20240303111349 45 66 0.0 1.0 0.00 0.50 0.05 93 1015.0
20240303110605 46 66 0.0 0.0 0.00 0.55 0.05 93 1015.1
20240303110104 46 66 0.0 1.0 0.00 0.59 0.05 93 1015.1
20240303105604 46 66 0.0 1.0 0.02 0.60 0.05 93 1015.0
20240303105104 46 66 0.0 0.0 0.02 0.60 0.05 93 1015.1
20240303104606 46 66 0.0 0.0 0.02 0.61 0.05 93 1015.2
20240303104106 46 66 0.0 0.0 0.02 0.61 0.05 93 1015.2
20240303103856 46 66 0.0 0.0 0.02 0.61 0.05 93 1015.2
20240303103106 46 66 0.0 0.0 0.02 0.61 0.05 93 1015.2
20240303102603 46 66 0.0 0.0 0.02 0.61 0.05 93 1015.2
20240303102103 46 66 0.0 0.0 0.02 0.61 0.05 93 1015.1
20240303101605 47 66 0.0 0.0 0.02 0.61 0.05 93 1015.1
20240303101106 47 66 0.0 0.0 0.02 0.61 0.05 93 1015.0
20240303100604 47 66 0.0 0.0 0.02 0.61 0.05 93 1015.0
20240303100104 47 68 0.0 0.0 0.02 0.61 0.05 93 1014.9
20240303095607 0 0.0 0.0 0.00 0.59 0.03 1014.9
20240303095107 0 0.0 0.0 0.00 0.59 0.03 1015.2
20240303094607 0 0.0 0.0 0.00 0.59 0.03 1015.4
20240303094336 0 0.0 0.0 0.00 0.59 0.03 1015.4
20240303093606 0 0.0 0.0 0.00 0.59 0.03 1015.4
20240303093105 0 0.0 0.0 0.00 0.59 0.03 1015.5
20240303092604 0 0.0 0.0 0.00 0.59 0.03 1015.4
20240303092105 0 0.0 0.0 0.00 0.59 0.03 1015.4
20240303091607 0 0.0 0.0 0.01 0.59 0.03 1015.5
20240303091105 0 0.0 0.0 0.01 0.59 0.03 1015.4
20240303090606 0 0.0 0.0 0.01 0.59 0.03 1015.3
20240303090107 48 192 0.0 0.0 0.03 0.59 0.03 92 1015.3
20240303085604 48 192 0.0 2.0 0.03 0.59 0.03 92 1015.3
20240303085103 48 192 0.0 2.0 0.03 0.59 0.03 92 1015.3
20240303084843 48 192 0.0 1.0 0.03 0.59 0.03 92 1015.3
20240303084102 48 192 0.0 2.0 0.04 0.59 0.03 92 1015.3
20240303083635 48 192 1.0 5.0 0.05 0.59 0.03 92 1015.4
20240303083623 48 192 1.0 3.0 0.05 0.59 0.03 92 1015.3
20240303082602 48 192 0.0 5.0 0.05 0.59 0.03 92 1015.3
20240303082348 48 192 0.0 4.0 0.06 0.59 0.03 92 1015.4
20240303081605 48 190 0.0 6.0 0.05 0.58 0.02 92 1015.5
20240303081103 48 190 3.0 6.0 0.05 0.58 0.02 92 1015.4
20240303080604 48 190 2.0 5.0 0.05 0.58 0.02 91 1015.3
20240303080104 0 0.0 0.0 0.04 0.56 0.00 1015.3
20240303075606 49 190 4.0 5.0 0.04 0.56 0.56 91 1015.1
20240303075329 49 190 4.0 5.0 0.04 0.56 0.56 91 1015.1
20240303074605 49 173 3.0 4.0 0.04 0.56 0.56 91 1015.0
20240303074104 49 172 1.0 6.0 0.03 0.55 0.55 91 1014.9
20240303073604 49 172 2.0 6.0 0.03 0.54 0.54 91 1014.7
20240303073342 49 178 2.0 6.0 0.03 0.54 0.54 91 1014.8
20240303072842 49 178 2.0 6.0 0.03 0.54 0.54 90 1014.7
20240303072509 49 171 1.0 4.0 0.02 0.53 0.53 90 1014.3
20240303072504 49 172 2.0 4.0 0.02 0.53 0.53 90 1014.4
20240303072457 49 173 0.0 4.0 0.02 0.53 0.53 90 1014.5
20240303070605 49 171 2.0 4.0 0.02 0.53 0.53 90 1014.4
20240303070341 49 171 0.0 5.0 0.01 0.52 0.52 90 1014.4
20240303070131 49 171 0.0 5.0 0.01 0.52 0.52 90 1014.4
20240303065606 49 171 1.0 5.0 0.01 0.52 0.52 89 1014.3
20240303065106 49 171 1.0 4.0 0.01 0.52 0.52 89 1014.2
20240303064603 49 171 0.0 5.0 0.01 0.52 0.52 89 1014.2
20240303064104 49 171 1.0 5.0 0.01 0.52 0.52 89 1014.2
20240303063603 49 175 3.0 7.0 0.00 0.51 0.51 89 1014.2
20240303063104 49 154 4.0 7.0 0.00 0.51 0.51 89 1014.1
20240303062604 49 152 3.0 6.0 0.00 0.51 0.51 89 1014.1
20240303062346 49 162 3.0 6.0 0.00 0.51 0.51 89 1014.0
20240303061604 49 157 3.0 7.0 0.00 0.51 0.51 89 1013.9
20240303061105 49 164 4.0 7.0 0.00 0.51 0.51 89 1013.8
20240303060846 49 154 4.0 7.0 0.00 0.51 0.51 89 1013.8
20240303060105 49 148 3.0 7.0 0.00 0.51 0.51 89 1013.8
20240303055604 49 148 2.0 9.0 0.00 0.51 0.51 88 1013.9
20240303055103 49 172 2.0 10.0 0.00 0.51 0.51 88 1013.9
20240303054604 49 159 2.0 10.0 0.00 0.51 0.51 88 1013.8
20240303054107 49 109 4.0 10.0 0.00 0.51 0.51 88 1013.7
20240303053604 49 137 3.0 10.0 0.00 0.51 0.51 88 1013.6
20240303053104 49 149 4.0 10.0 0.00 0.51 0.51 87 1013.7
20240303052604 0 0.0 0.0 0.00 0.51 0.51 1013.6
20240303052105 0 0.0 0.0 0.00 0.51 0.51 1013.6
20240303051612 0 0.0 0.0 0.00 0.51 0.51 1013.5
20240303051604 0 0.0 0.0 0.00 0.51 0.51 1013.6
20240303050607 48 121 4.0 6.0 0.01 0.51 0.51 88 1013.4
20240303050338 48 121 4.0 10.0 0.01 0.51 0.51 88 1013.4
20240303045605 48 100 4.0 10.0 0.02 0.51 0.51 88 1013.3
20240303045106 48 130 5.0 9.0 0.02 0.51 0.51 89 1013.2
20240303044603 48 128 4.0 7.0 0.03 0.51 0.51 89 1013.2
20240303044105 48 111 5.0 7.0 0.03 0.51 0.51 89 1013.2
20240303043603 48 116 3.0 7.0 0.03 0.51 0.51 89 1013.2
20240303043106 48 121 2.0 7.0 0.03 0.51 0.51 89 1013.3
20240303042604 48 117 4.0 6.0 0.03 0.51 0.51 89 1013.1
20240303042336 48 125 1.0 4.0 0.04 0.51 0.51 89 1013.2
20240303041844 48 125 2.0 5.0 0.04 0.51 0.51 88 1013.2
20240303041349 48 131 3.0 5.0 0.04 0.51 0.51 88 1013.1
20240303040605 48 151 2.0 5.0 0.03 0.50 0.50 88 1013.2
20240303040103 48 152 1.0 5.0 0.04 0.50 0.50 88 1013.3
20240303035605 48 154 3.0 10.0 0.03 0.49 0.49 88 1013.5
20240303035104 48 155 2.0 11.0 0.03 0.49 0.49 88 1013.6
20240303034604 48 173 2.0 11.0 0.02 0.48 0.48 88 1013.6
20240303034106 48 161 0.0 0.0 0.02 0.48 0.48 87 1013.6
20240303033901 48 171 0.0 11.0 0.02 0.48 0.48 87 1013.4
20240303033103 48 116 5.0 11.0 0.02 0.48 0.48 87 1013.2
20240303032604 48 104 0.0 4.0 0.02 0.48 0.48 87 1013.2
20240303032104 48 104 1.0 4.0 0.01 0.47 0.47 87 1013.1
20240303031604 48 104 0.0 3.0 0.01 0.47 0.47 86 1013.1
20240303031347 48 104 1.0 3.0 0.01 0.47 0.47 86 1013.0
20240303030605 48 104 1.0 3.0 0.01 0.47 0.47 85 1013.0
20240303030103 48 104 0.0 0.0 0.00 0.46 0.46 84 1012.9
20240303025601 49 104 0.0 2.0 0.00 0.46 0.46 84 1012.9
20240303025103 49 104 0.0 3.0 0.00 0.46 0.46 84 1013.0
20240303024601 49 104 0.0 3.0 0.00 0.46 0.46 83 1013.0
20240303024105 49 104 0.0 5.0 0.00 0.46 0.46 83 1013.0
20240303023603 49 104 0.0 5.0 0.00 0.46 0.46 83 1012.9
20240303023102 49 103 2.0 5.0 0.00 0.46 0.46 82 1012.8
20240303022602 49 103 0.0 0.0 0.00 0.46 0.46 82 1012.7
20240303022104 49 121 0.0 0.0 0.00 0.46 0.46 82 1012.8
20240303021837 49 113 0.0 0.0 0.00 0.46 0.46 81 1012.8
20240303021339 49 113 0.0 0.0 0.00 0.46 0.46 81 1012.9
20240303020602 49 113 0.0 0.0 0.00 0.46 0.46 81 1013.0
20240303020101 49 113 0.0 0.0 0.00 0.46 0.46 81 1012.9
20240303015601 49 116 0.0 0.0 0.00 0.46 0.46 81 1012.8
20240303015102 49 100 0.0 7.0 0.00 0.46 0.46 81 1012.7
20240303014602 49 104 0.0 7.0 0.00 0.46 0.46 81 1012.7
20240303014101 49 102 0.0 5.0 0.00 0.46 0.46 81 1012.7
20240303013601 49 113 0.0 5.0 0.10 0.46 0.46 81 1012.7
20240303013337 49 83 2.0 6.0 0.10 0.46 0.46 81 1012.7
20240303012559 49 106 4.0 6.0 0.10 0.46 0.46 80 1012.6
20240303012101 49 86 2.0 5.0 0.10 0.46 0.46 80 1012.7
20240303011600 49 90 0.0 6.0 0.10 0.46 0.46 80 1012.6
20240303011100 49 104 0.0 6.0 0.10 0.46 0.46 80 1012.7
20240303010601 49 107 1.0 4.0 0.10 0.46 0.46 80 1012.7
20240303010102 49 85 0.0 0.0 0.10 0.46 0.46 80 1012.7
20240303005600 49 104 0.0 7.0 0.10 0.46 0.46 80 1012.6
20240303005101 49 97 2.0 7.0 0.10 0.46 0.46 80 1012.7
20240303004601 49 92 3.0 10.0 0.10 0.46 0.46 80 1012.7
20240303004100 50 111 2.0 10.0 0.10 0.46 0.46 79 1012.7
20240303003600 0 0.0 0.0 0.00 0.36 0.36 1012.8
20240303003058 0 0.0 0.0 0.00 0.36 0.36 1012.8
20240303002557 0 0.0 0.0 0.00 0.36 0.36 1012.7
20240303002056 0 0.0 0.0 0.00 0.36 0.36 1012.9
20240303001553 0 0.0 0.0 0.00 0.36 0.36 1013.0
20240303001318 0 0.0 0.0 0.00 0.36 0.36 1012.8
20240303000549 0 0.0 0.0 0.00 0.36 0.36 1012.9
20240303000047 0 0.0 0.0 0.00 0.36 0.36 1012.9
20240302235545 0 0.0 0.0 0.00 0.36 0.36 1012.8
20240302235045 0 0.0 0.0 0.00 0.36 0.36 1012.8
20240302234542 0 0.0 0.0 0.00 0.36 0.36 1012.8
20240302234040 0 0.0 0.0 0.00 0.36 0.36 1012.8
20240302233536 0 0.0 0.0 0.00 0.36 0.36 1012.8
20240302233036 0 0.0 0.0 0.00 0.36 0.36 1012.8
20240302232534 0 0.0 0.0 0.00 0.36 0.36 1012.9
20240302232032 0 0.0 0.0 0.00 0.36 0.36 1012.9
20240302231531 0 0.0 0.0 0.00 0.36 0.36 1013.0
20240302231030 0 0.0 0.0 0.00 0.36 0.36 1013.4
20240302230527 0 0.0 0.0 0.00 0.36 0.36 1013.9
20240302230027 0 0.0 0.0 0.00 0.36 0.36 1014.0
20240302225728 0 0.0 0.0 0.00 0.36 0.36 1014.0
20240302225005 0 0.0 0.0 0.00 0.36 0.36 1014.1
20240302224504 0 0.0 0.0 0.00 0.36 0.36 1014.0
20240302224004 0 0.0 0.0 0.00 0.36 0.36 1014.0
20240302223504 0 0.0 0.0 0.00 0.36 0.36 1013.9
20240302223229 0 0.0 0.0 0.00 0.36 0.36 1013.8
20240302222505 0 0.0 0.0 0.00 0.36 0.36 1013.7
20240302222005 0 0.0 0.0 0.00 0.36 0.36 1013.7
20240302221505 0 0.0 0.0 0.00 0.36 0.36 1013.6
20240302221007 0 0.0 0.0 0.00 0.36 0.36 1013.6
20240302220727 0 0.0 0.0 0.00 0.36 0.36 1013.6
20240302220005 0 0.0 0.0 0.00 0.36 0.36 1013.6
20240302215504 0 0.0 0.0 0.00 0.36 0.36 1013.5
20240302215002 0 0.0 0.0 0.00 0.36 0.36 1013.7
20240302214458 0 0.0 0.0 0.00 0.36 0.36 1013.7
20240302213958 0 0.0 0.0 0.00 0.36 0.36 1013.7
20240302213456 51 18 1.0 3.0 0.01 0.36 0.36 79 1013.6
20240302212955 51 18 1.0 7.0 0.01 0.37 0.36 79 1013.6
20240302212453 51 39 1.0 9.0 0.01 0.37 0.36 83 1013.7
20240302211955 51 44 2.0 10.0 0.01 0.38 0.36 83 1013.8
20240302211452 51 45 3.0 11.0 0.01 0.38 0.36 87 1014.0
20240302210951 50 37 1.0 11.0 0.01 0.38 0.36 84 1014.0
20240302210453 50 42 0.0 7.0 0.01 0.39 0.36 86 1014.1
20240302205954 50 34 0.0 3.0 0.01 0.45 0.36 85 1014.2
20240302205455 50 28 0.0 0.0 0.02 0.47 0.36 89 1014.2
20240302204954 49 11 0.0 0.0 0.02 0.48 0.36 89 1014.2
20240302204453 49 10 0.0 0.0 0.03 0.49 0.36 87 1014.3
20240302203953 49 8 0.0 0.0 0.04 0.49 0.36 87 1014.4
20240302203453 49 10 0.0 0.0 0.04 0.48 0.35 87 1014.5
20240302203241 49 1 0.0 0.0 0.05 0.48 0.35 87 1014.5
20240302202455 49 351 0.0 0.0 0.06 0.48 0.35 87 1014.5
20240302202318 49 351 0.0 5.0 0.07 0.48 0.35 87 1014.5
20240302202100 49 351 0.0 5.0 0.07 0.48 0.35 87 1014.5
20240302202029 49 351 0.0 0.0 0.07 0.48 0.35 87 1014.4
20240302200953 49 351 0.0 5.0 0.08 0.48 0.35 88 1014.6
20240302200451 49 351 0.0 0.0 0.09 0.48 0.35 89 1014.8
20240302200141 49 351 0.0 3.0 0.09 0.47 0.34 90 1014.8
20240302200058 49 351 0.0 0.0 0.10 0.48 0.35 88 1014.8
20240302194959 48 350 0.0 3.0 0.19 0.47 0.34 89 1014.9
20240302194745 47 351 0.0 1.0 0.18 0.46 0.33 88 1015.0
20240302194057 47 344 0.0 9.0 0.16 0.44 0.31 87 1014.9
20240302194028 47 333 0.0 6.0 0.17 0.45 0.32 87 1014.9
20240302192952 48 348 1.0 9.0 0.15 0.43 0.30 87 1015.0
20240302192451 48 0 0.0 3.0 0.14 0.42 0.29 88 1014.7
20240302191953 48 0 0.0 0.0 0.13 0.41 0.28 88 1014.8
20240302191452 48 353 0.0 0.0 0.13 0.41 0.28 88 1014.7
20240302191228 48 21 0.0 0.0 0.12 0.40 0.27 88 1014.6
20240302190802 48 21 0.0 0.0 0.11 0.39 0.26 88 1014.5